1302566433488,0.808666
1302566493488,0.817199
1302566553488,0.810305
1302566613488,0.810087
1302566673488,0.800858
1302566733488,0.799309
1302566793488,0.804681
1302566853488,0.796206
1302566913488,0.803053
1302566973488,0.792929
1302567033488,0.792633
1302567093488,0.796575
1302567153488,0.788828
1302567213488,0.786360
1302567273488,0.791075
1302567333488,0.792243
1302567393488,0.789111
1302567453488,0.781173
1302567513488,0.789412
1302567573488,0.786925
1302567633488,0.788264
1302567693488,0.789688
1302567753488,0.788178
1302567813488,0.781203
1302567873488,0.785367
1302567933488,0.788091
1302567993488,0.782346
1302568053488,0.775912
1302568113488,0.786481
1302568173488,0.785724
1302568233488,0.784746
1302568293488,0.777595
1302568353488,0.777677
1302568413488,0.787730
1302568473488,0.775432
1302568533488,0.776150
1302568593488,0.781807
1302568653488,0.779866
1302568713488,0.780748
1302568773488,0.777331
1302568833488,0.787857
1302568893488,0.783508
1302568953488,0.780828
1302569013488,0.776681
1302569073488,0.785421
1302569133488,0.777886
1302569193488,0.781161
1302569253488,0.777639
1302569313488,0.773017
1302569373488,0.780733
1302569433488,0.780576
1302569493488,0.784055
1302569553488,0.780460
1302569613488,0.782228
1302569673488,0.778230
1302569733488,0.780569
1302569793488,0.794311
1302569853488,0.786551
1302569913488,0.793651
1302569973488,0.791785
1302570033499,0.798162
1302570093499,0.787990
1302570153499,0.788598
1302570213499,0.796059
1302570273499,0.795871
1302570333499,0.787496
1302570393499,0.790105
1302570453499,0.792844
1302570513499,0.790533
1302570573499,0.790623
1302570633499,0.790273
1302570693499,0.797575
1302570753499,0.798820
1302570813499,0.797952
1302570873500,0.788135
1302570933500,0.789623
1302570993500,0.791929
1302571053500,0.794463
1302571113500,0.796422
1302571173499,0.791379
1302571233499,0.800805
1302571293499,0.805309
1302571353499,0.796445
1302571413499,0.796676
1302571473499,0.789627
1302571533499,0.789720
1302571593499,0.796283
1302571653499,0.795808
1302571713499,0.792334
1302571773499,0.791385
1302571833499,0.790400
1302571893499,0.787296
1302571953499,0.792801
1302572013499,0.786270
1302572073499,0.790754
1302572133499,0.783218
1302572193499,0.787311
1302572253500,0.789831
1302572313500,0.790322
1302572373500,0.787240
1302572433500,0.793339
1302572493500,0.792042
1302572553499,0.786507
1302572613499,0.780689
1302572673499,0.787920
1302572733499,0.790406
1302572793499,0.779441
1302572853499,0.785418
1302572913499,0.784199
1302572973499,0.777621
1302573033499,0.780744
1302573093499,0.784478
1302573153499,0.777942
1302573213499,0.778780
1302573273499,0.780667
1302573333499,0.781844
1302573393499,0.775626
1302573453499,0.774741
1302573513499,0.779682
1302573573500,0.774584
1302573633510,0.774121
1302573693510,0.775961
1302573753510,0.775579
1302573813510,0.774036
1302573873510,0.780636
1302573933510,0.768643
1302573993510,0.779404
1302574053510,0.779678
1302574113510,0.779433
1302574173510,0.786237
1302574233510,0.777892
1302574293510,0.777176
1302574353510,0.771218
1302574413510,0.779735
1302574473510,0.780787
1302574533510,0.777155
1302574593510,0.774666
1302574653510,0.775196
1302574713510,0.781111
1302574773510,0.781347
1302574833510,0.775675
1302574893510,0.775156
1302574953510,0.784626
1302575013510,0.776584
1302575073510,0.775471
1302575133510,0.777771
1302575193510,0.785329
1302575253510,0.769086
1302575313510,0.775917
1302575373510,0.770349
1302575433510,0.773391
1302575493510,0.778399
1302575553510,0.770583
1302575613510,0.776857
1302575673510,0.770387
1302575733510,0.782355
1302575793510,0.773971
1302575853510,0.774107
1302575913510,0.774725
1302575973510,0.767813
1302576033510,0.768904
1302576093510,0.777239
1302576153510,0.770802
1302576213510,0.765674
1302576273510,0.770308
1302576333510,0.771686
1302576393510,0.768809
1302576453510,0.778894
1302576513510,0.776638
1302576573510,0.777133
1302576633510,0.774507
1302576693510,0.777808
1302576753510,0.770399
1302576813510,0.769900
1302576873510,0.774116
1302576933510,0.777641
1302576993510,0.772567
1302577053510,0.779483
1302577113510,0.775175
1302577173510,0.776106
1302577233521,0.771236
1302577293521,0.772648
1302577353521,0.775266
1302577413521,0.779998
1302577473521,0.780195
1302577533521,0.777885
1302577593521,0.770239
1302577653521,0.780848
1302577713521,0.780711
1302577773521,0.775720
1302577833521,0.782002
1302577893521,0.779107
1302577953521,0.773653
1302578013521,0.772808
1302578073521,0.775129
1302578133521,0.777834
1302578193521,0.784894
1302578253521,0.779329
1302578313521,0.783409
1302578373521,0.785960
1302578433521,0.778798
1302578493521,0.783090
1302578553521,0.782112
1302578613521,0.778415
1302578673521,0.785368
1302578733521,0.770327
1302578793521,0.785924
1302578853521,0.783931
1302578913521,0.779888
1302578973521,0.781489
1302579033521,0.781038
1302579093521,0.774311
1302579153521,0.776715
1302579213521,0.779722
1302579273521,0.776329
1302579333521,0.774372
1302579393521,0.789966
1302579453521,0.778582
1302579513521,0.774745
1302579573521,0.780436
1302579633521,0.776956
1302579693521,0.780133
1302579753521,0.787762
1302579813521,0.791556
1302579873521,0.804079
1302579933521,0.813680
1302579993521,0.821916
1302580053521,0.833379
1302580113521,0.822842
1302580173521,0.830788
1302580233521,0.823844
1302580293521,0.837136
1302580353521,0.824514
1302580413521,0.822047
1302580473521,0.821524
1302580533521,0.816996
1302580593521,0.822019
1302580653521,0.811431
1302580713521,0.810377
1302580773521,0.807011
1302580833532,0.814723
1302580893532,0.806676
1302580953532,0.801410
1302581013532,0.799104
1302581073532,0.797106
1302581133532,0.801897
1302581193532,0.792867
1302581253532,0.798521
1302581313532,0.795740
1302581373532,0.788594
1302581433532,0.796871
1302581493532,0.795467
1302581553532,0.798334
1302581613532,0.795393
1302581673532,0.783472
1302581733532,0.783956
1302581793532,0.785137
1302581853532,0.786704
1302581913532,0.789289
1302581973532,0.786446
1302582033532,0.784096
1302582093532,0.792276
1302582153532,0.787310
1302582213532,0.788329
1302582273532,0.789043
1302582333532,0.795137
1302582393532,0.791694
1302582453532,0.796346
1302582513532,0.784141
1302582573532,0.784323
1302582633532,0.788428
1302582693532,0.790358
1302582753532,0.786169
1302582813532,0.783535
1302582873532,0.786408
1302582933532,0.787159
1302582993532,0.786698
1302583053532,0.786483
1302583113532,0.785278
1302583173532,0.790383
1302583233532,0.781991
1302583293532,0.786097
1302583353532,0.786875
1302583413532,0.784636
1302583473532,0.789599
1302583533532,0.790536
1302583593532,0.789481
1302583653532,0.795601
1302583713532,0.795016
1302583773532,0.792382
1302583833532,0.800387
1302583893532,0.797743
1302583953532,0.796883
1302584013532,0.804683
1302584073532,0.798434
1302584133532,0.803608
1302584193532,0.791196
1302584253532,0.798472
1302584313532,0.795765
1302584373532,0.799264
1302584433543,0.801477
1302584493543,0.799959
1302584553543,0.793746
1302584613543,0.791138
1302584673543,0.787300
1302584733543,0.792858
1302584793543,0.787513
1302584853543,0.794171
1302584913543,0.790103
1302584973543,0.791513
1302585033543,0.788194
1302585093543,0.787003
1302585153543,0.790643
1302585213543,0.793514
1302585273543,0.791028
1302585333543,0.793065
1302585393543,0.789998
1302585453543,0.798182
1302585513543,0.792409
1302585573543,0.795686
1302585633543,0.793277
1302585693543,0.794113
1302585753543,0.800462
1302585813543,0.789907
1302585873543,0.793160
1302585933543,0.801865
1302585993543,0.799784
1302586053543,0.805370
1302586113543,0.802312
1302586173543,0.803302
1302586233543,0.796010
1302586293543,0.800529
1302586353543,0.804312
1302586413543,0.800688
1302586473543,0.790971
1302586533543,0.792222
1302586593543,0.794250
1302586653543,0.792912
1302586713543,0.781987
1302586773543,0.795674
1302586833543,0.789705
1302586893543,0.793954
1302586953543,0.789683
1302587013543,0.786935
1302587073543,0.788881
1302587133543,0.779124
1302587193543,0.782404
1302587253543,0.781056
1302587313543,0.783963
1302587373543,0.782067
1302587433543,0.777348
1302587493543,0.792331
1302587553543,0.792153
1302587613543,0.783412
1302587673543,0.782907
1302587733543,0.785757
1302587793543,0.797813
1302587853543,0.786328
1302587913543,0.786714
1302587973543,0.796107
1302588033553,0.785952
1302588093553,0.788294
1302588153553,0.793948
1302588213553,0.796443
1302588273553,0.807250
1302588333553,0.812483
1302588393553,0.817337
1302588453553,0.848007
1302588513553,0.851071
1302588573553,0.853791
1302588633553,0.844192
1302588693553,0.836931
1302588753553,0.826925
1302588813553,0.825995
1302588873553,0.824460
1302588933553,0.822870
1302588993553,0.823923
1302589053553,0.815794
1302589113553,0.814768
1302589173553,0.821870
1302589233553,0.815080
1302589293553,0.811466
1302589353553,0.801135
1302589413553,0.801684
1302589473553,0.801556
1302589533553,0.805770
1302589593553,0.792441
1302589653553,0.803464
1302589713553,0.798496
1302589773553,0.811852
1302589833553,0.799799
1302589893553,0.792604
1302589953553,0.798779
1302590013553,0.802270
1302590073553,0.800991
1302590133553,0.805296
1302590193553,0.803847
1302590253553,0.796931
1302590313553,0.803095
1302590373553,0.802525
1302590433553,0.800828
1302590493553,0.799463
1302590553553,0.794500
1302590613553,0.795586
1302590673553,0.797911
1302590733553,0.796713
1302590793553,0.796034
1302590853553,0.792135
1302590913553,0.796069
1302590973553,0.790804
1302591033553,0.791567
1302591093553,0.797630
1302591153553,0.790339
1302591213553,0.792478
1302591273553,0.792409
1302591333553,0.790584
1302591393553,0.797456
1302591453553,0.797267
1302591513553,0.790273
1302591573553,0.789725
1302591633564,0.792172
1302591693564,0.801889
1302591753564,0.784115
1302591813564,0.786605
1302591873564,0.793303
1302591933564,0.791695
1302591993564,0.794588
1302592053564,0.782747
1302592113564,0.787664
1302592173564,0.788565
1302592233564,0.800723
1302592293564,0.789863
1302592353564,0.788410
1302592413564,0.789724
1302592473564,0.794531
1302592533564,0.788045
1302592593564,0.792106
1302592653564,0.792509
1302592713564,0.789079
1302592773564,0.788396
1302592833564,0.789264
1302592893564,0.783683
1302592953564,0.783336
1302593013564,0.779035
1302593073564,0.786278
1302593133564,0.787541
1302593193564,0.781773
1302593253564,0.785806
1302593313564,0.784657
1302593373564,0.774099
1302593433564,0.784535
1302593493564,0.781455
1302593553564,0.775348
1302593613564,0.788152
1302593673564,0.783071
1302593733564,0.785037
1302593793564,0.780663
1302593853564,0.777437
1302593913564,0.777340
1302593973564,0.781889
1302594033564,0.781636
1302594093564,0.781978
1302594153564,0.782673
1302594213564,0.784636
1302594273564,0.781125
1302594333564,0.772170
1302594393564,0.780527
1302594453564,0.780508
1302594513564,0.780195
1302594573564,0.773645
1302594633564,0.777607
1302594693564,0.778375
1302594753564,0.775401
1302594813564,0.771664
1302594873564,0.782544
1302594933564,0.781543
1302594993564,0.772523
1302595053564,0.777875
1302595113564,0.786653
1302595173564,0.776736
1302595233575,0.772526
1302595293575,0.777953
1302595353575,0.781932
1302595413574,0.769280
1302595473574,0.775299
1302595533574,0.774466
1302595593574,0.779332
1302595653574,0.774130
1302595713574,0.782337
1302595773574,0.776976
1302595833574,0.771727
1302595893574,0.772869
1302595953574,0.767953
1302596013575,0.773761
1302596073574,0.768640
1302596133574,0.770060
1302596193574,0.774710
1302596253574,0.774054
1302596313575,0.778806
1302596373575,0.783749
1302596433575,0.772990
1302596493575,0.777543
1302596553575,0.774911
1302596613575,0.776977
1302596673575,0.778226
1302596733574,0.775320
1302596793574,0.779144
1302596853574,0.774631
1302596913574,0.781416
1302596973574,0.780651
1302597033574,0.777633
1302597093574,0.768889
1302597153574,0.775002
1302597213574,0.778758
1302597273574,0.774581
1302597333575,0.772438
1302597393574,0.774484
1302597453574,0.780688
1302597513574,0.779292
1302597573574,0.773503
1302597633574,0.771895
1302597693575,0.780351
1302597753575,0.774818
1302597813575,0.775973
1302597873575,0.778495
1302597933575,0.781681
1302597993575,0.783305
1302598053575,0.782572
1302598113574,0.785614
1302598173574,0.782059
1302598233574,0.782613
1302598293574,0.781281
1302598353574,0.784973
1302598413574,0.781127
1302598473574,0.791786
1302598533574,0.790000
1302598593574,0.784689
1302598653574,0.786523
1302598713575,0.789414
1302598773574,0.786764
1302598833585,0.788210
1302598893585,0.788647
1302598953585,0.783882
1302599013585,0.787089
1302599073585,0.786180
1302599133585,0.782528
1302599193585,0.782461
1302599253585,0.783131
1302599313585,0.774641
1302599373585,0.782258
1302599433585,0.770173
1302599493585,0.777811
1302599553585,0.780257
1302599613585,0.775874
1302599673585,0.776956
1302599733585,0.775433
1302599793585,0.775684
1302599853585,0.779978
1302599913585,0.778013
1302599973585,0.777843
1302600033585,0.771975
1302600093585,0.770478
1302600153585,0.777454
1302600213585,0.773720
1302600273585,0.775660
1302600333585,0.780308
1302600393585,0.773029
1302600453585,0.775528
1302600513585,0.770514
1302600573585,0.770614
1302600633585,0.777858
1302600693585,0.773430
1302600753585,0.769253
1302600813585,0.783526
1302600873585,0.775985
1302600933585,0.765276
1302600993585,0.779442
1302601053585,0.774981
1302601113585,0.771439
1302601173585,0.773561
1302601233585,0.774904
1302601293585,0.769121
1302601353585,0.785200
1302601413585,0.775254
1302601473585,0.773458
1302601533585,0.777607
1302601593585,0.776508
1302601653585,0.773734
1302601713585,0.779231
1302601773585,0.781916
1302601833585,0.773874
1302601893585,0.781138
1302601953585,0.777869
1302602013585,0.781116
1302602073585,0.774715
1302602133585,0.773532
1302602193585,0.767082
1302602253585,0.772939
1302602313585,0.771832
1302602373585,0.768339
1302602433596,0.772026
1302602493596,0.777279
1302602553596,0.770140
1302602613596,0.780854
1302602673596,0.772077
1302602733596,0.772672
1302602793596,0.776537
1302602853596,0.773144
1302602913596,0.772795
1302602973596,0.773676
1302603033596,0.774056
1302603093596,0.778734
1302603153596,0.777482
1302603213596,0.777146
1302603273596,0.772072
1302603333596,0.768756
1302603393596,0.779646
1302603453596,0.780933
1302603513596,0.774139
1302603573596,0.767937
1302603633596,0.769076
1302603693596,0.779249
1302603753596,0.770514
1302603813596,0.771282
1302603873596,0.776655
1302603933596,0.771546
1302603993596,0.776717
1302604053596,0.771863
1302604113596,0.776509
1302604173596,0.775754
1302604233596,0.786525
1302604293596,0.776452
1302604353596,0.788387
1302604413596,0.778626
1302604473596,0.788552
1302604533596,0.788342
1302604593596,0.786809
1302604653596,0.783312
1302604713596,0.780906
1302604773596,0.782888
1302604833596,0.785877
1302604893596,0.778160
1302604953596,0.773058
1302605013596,0.776040
1302605073596,0.787088
1302605133596,0.783299
1302605193596,0.781253
1302605253596,0.777636
1302605313596,0.770086
1302605373596,0.781371
1302605433596,0.775660
1302605493596,0.781156
1302605553596,0.778285
1302605613596,0.780850
1302605673596,0.780519
1302605733596,0.778682
1302605793596,0.772108
1302605853596,0.780025
1302605913596,0.781590
1302605973596,0.783512
1302606033606,0.772864
1302606093606,0.775283
1302606153606,0.775597
1302606213606,0.778650
1302606273606,0.778141
1302606333606,0.777197
1302606393606,0.783317
1302606453606,0.781719
1302606513606,0.785326
1302606573606,0.779599
1302606633606,0.772309
1302606693606,0.779014
1302606753606,0.774991
1302606813606,0.773430
1302606873606,0.771306
1302606933606,0.779094
1302606993606,0.773916
1302607053606,0.775381
1302607113606,0.775537
1302607173606,0.775919
1302607233606,0.784994
1302607293606,0.774395
1302607353606,0.777866
1302607413606,0.771717
1302607473606,0.776301
1302607533606,0.778850
1302607593606,0.775175
1302607653606,0.782709
1302607713606,0.770901
1302607773606,0.789059
1302607833606,0.783612
1302607893606,0.778734
1302607953606,0.780380
1302608013606,0.782874
1302608073606,0.777833
1302608133606,0.779657
1302608193606,0.778825
1302608253606,0.774111
1302608313606,0.769908
1302608373606,0.777814
1302608433606,0.778535
1302608493606,0.776660
1302608553606,0.774586
1302608613606,0.775549
1302608673606,0.783064
1302608733606,0.769083
1302608793606,0.772556
1302608853606,0.773932
1302608913606,0.774737
1302608973606,0.778358
1302609033606,0.768233
1302609093606,0.780299
1302609153606,0.777945
1302609213606,0.771683
1302609273606,0.771285
1302609333606,0.778528
1302609393606,0.773737
1302609453606,0.779351
1302609513606,0.773171
1302609573606,0.773892
1302609633617,0.780244
1302609693617,0.774620
1302609753617,0.767375
1302609813617,0.777320
1302609873617,0.775223
1302609933617,0.776268
1302609993617,0.773371
1302610053617,0.772617
1302610113617,0.776410
1302610173617,0.776539
1302610233617,0.778175
1302610293617,0.768566
1302610353617,0.772441
1302610413617,0.776267
1302610473617,0.776733
1302610533617,0.778974
1302610593617,0.774876
1302610653617,0.778265
1302610713617,0.785245
1302610773617,0.783167
1302610833617,0.778227
1302610893617,0.784028
1302610953617,0.790417
1302611013617,0.791974
1302611073617,0.803567
1302611133617,0.813828
1302611193617,0.824528
1302611253617,0.824474
1302611313617,0.831163
1302611373617,0.838325
1302611433617,0.820389
1302611493617,0.823809
1302611553617,0.833268
1302611613617,0.836001
1302611673617,0.838644
1302611733617,0.832841
1302611793617,0.820892
1302611853617,0.831940
1302611913617,0.826181
1302611973617,0.817044
1302612033617,0.800053
1302612093617,0.796339
1302612153617,0.786741
1302612213617,0.793941
1302612273617,0.787233
1302612333617,0.781007
1302612393617,0.780399
1302612453617,0.780234
1302612513617,0.786867
1302612573617,0.781973
1302612633617,0.782810
1302612693617,0.785095
1302612753617,0.787276
1302612813617,0.778952
1302612873617,0.777632
1302612933617,0.790805
1302612993617,0.787929
1302613053617,0.793818
1302613113617,0.785683
1302613173617,0.782130
1302613233627,0.782506
1302613293627,0.782399
1302613353627,0.787239
1302613413627,0.780848
1302613473627,0.782236
1302613533627,0.782219
1302613593627,0.783039
1302613653627,0.774616
1302613713627,0.776796
1302613773627,0.774832
1302613833627,0.773098
1302613893627,0.777147
1302613953627,0.769647
1302614013627,0.768682
1302614073627,0.773712
1302614133627,0.773362
1302614193627,0.770293
1302614253627,0.775780
1302614313627,0.769044
1302614373627,0.775123
1302614433627,0.777201
1302614493627,0.772641
1302614553627,0.774464
1302614613627,0.773027
1302614673627,0.782000
1302614733627,0.775982
1302614793627,0.774432
1302614853627,0.771957
1302614913627,0.776002
1302614973627,0.773358
1302615033627,0.776663
1302615093627,0.792676
1302615153627,0.783246
1302615213627,0.782897
1302615273627,0.787797
1302615333627,0.786532
1302615393627,0.780153
1302615453627,0.781181
1302615513627,0.776180
1302615573627,0.778396
1302615633627,0.780385
1302615693627,0.780097
1302615753627,0.779531
1302615813627,0.778895
1302615873627,0.773742
1302615933627,0.772089
1302615993627,0.770765
1302616053627,0.781535
1302616113627,0.773002
1302616173627,0.779911
1302616233627,0.775081
1302616293627,0.770868
1302616353627,0.771570
1302616413627,0.780687
1302616473627,0.779751
1302616533627,0.772885
1302616593627,0.774556
1302616653627,0.776177
1302616713627,0.772473
1302616773627,0.774066
1302616833637,0.768093
1302616893637,0.778266
1302616953637,0.772337
1302617013637,0.777127
1302617073637,0.775033
1302617133637,0.775236
1302617193637,0.774646
1302617253637,0.786217
1302617313637,0.784320
1302617373637,0.777921
1302617433637,0.785198
1302617493637,0.781288
1302617553637,0.783752
1302617613637,0.781399
1302617673637,0.778364
1302617733637,0.784404
1302617793637,0.772869
1302617853637,0.778572
1302617913637,0.773726
1302617973637,0.769568
1302618033637,0.779702
1302618093637,0.780859
1302618153637,0.779719
1302618213637,0.784590
1302618273637,0.782440
1302618333637,0.780314
1302618393637,0.774698
1302618453637,0.776173
1302618513637,0.780990
1302618573637,0.776534
1302618633637,0.779541
1302618693637,0.778130
1302618753637,0.783919
1302618813637,0.773562
1302618873637,0.775490
1302618933637,0.777376
1302618993637,0.775023
1302619053637,0.775986
1302619113637,0.772777
1302619173637,0.769145
1302619233637,0.776256
1302619293637,0.767779
1302619353637,0.778058
1302619413637,0.775843
1302619473637,0.779021
1302619533637,0.767313
1302619593637,0.778399
1302619653637,0.771572
1302619713637,0.773102
1302619773637,0.773412
1302619833637,0.771453
1302619893637,0.771228
1302619953637,0.767762
1302620013637,0.771625
1302620073637,0.764200
1302620133637,0.770520
1302620193637,0.766123
1302620253637,0.762632
1302620313637,0.773435
1302620373637,0.769099
1302620433647,0.763576
1302620493647,0.763527
1302620553647,0.763012
1302620613647,0.767761
1302620673647,0.763921
1302620733647,0.768811
1302620793647,0.773375
1302620853647,0.763240
1302620913647,0.769757
1302620973647,0.770344
1302621033647,0.780065
1302621093647,0.775683
1302621633647,0.772247
1302621693647,0.806547
1302621753647,0.772134
1302621813647,0.767319
1302621873647,0.764503
1302621933647,0.771059
1302621993647,0.777109
1302622053647,0.773274
1302622113647,0.772883
1302622173647,0.770486
1302622233647,0.774359
1302622293647,0.781931
1302622353647,0.765444
1302622413647,0.764322
1302622473647,0.774683
1302622533647,0.770956
1302622593647,0.769958
1302622653647,0.774906
1302622713647,0.772001
1302622773647,0.772318
1302622833647,0.769114
1302622893647,0.769418
1302622953647,0.775133
1302623013647,0.774351
1302623073647,0.762620
1302623133647,0.771623
1302623193647,0.775052
1302623253647,0.769911
1302623313647,0.768367
1302623373647,0.768131
1302623433647,0.771328
1302623493647,0.772636
1302623553647,0.762823
1302623613647,0.765869
1302623673647,0.763818
1302623733647,0.772674
1302623793647,0.778842
1302623853647,0.770059
1302623913647,0.766035
1302623973647,0.772591
1302624033657,0.766680
1302624093657,0.770246
1302624153657,0.767530
1302624213657,0.770024
1302624273657,0.771971
1302624333657,0.768279
1302624393657,0.767493
1302624453657,0.775042
1302624513657,0.782087
1302624573657,0.771412
1302624633657,0.778618
1302624693657,0.777887
1302624753657,0.770777
1302624813657,0.784239
1302624873657,0.785691
1302624933657,0.788051
1302624993657,0.781821
1302625053657,0.793486
1302625113657,0.791610
1302625173657,0.795087
1302625233657,0.800804
1302625293657,0.802911
1302625353657,0.795009
1302625413657,0.791581
1302625473657,0.794978
1302625533657,0.794769
1302625593657,0.797984
1302625653657,0.794684
1302625713657,0.788428
1302625773657,0.781824
1302625833657,0.781726
1302625893657,0.779402
1302625953657,0.786002
1302626013657,0.785207
1302626073657,0.781525
1302626133657,0.782922
1302626193657,0.783055
1302626253657,0.779957
1302626313657,0.782959
1302626373657,0.785599
1302626433657,0.777021
1302626493657,0.779413
1302626553657,0.782631
1302626613657,0.773287
1302626673657,0.775375
1302626733657,0.780553
1302626793657,0.774523
1302626853657,0.776411
1302626913657,0.773427
1302626973657,0.773887
1302627033657,0.776550
1302627093657,0.768439
1302627153657,0.768661
1302627213657,0.767810
1302627273657,0.777358
1302627333657,0.779725
1302627393657,0.780493
1302627453657,0.780987
1302627513657,0.782027
1302627573657,0.782478
1302627633667,0.780846
1302627693667,0.784013
1302627753667,0.786017
1302627813667,0.777564
1302627873667,0.776064
1302627933667,0.776624
1302627993667,0.776261
1302628053667,0.774284
1302628113667,0.774072
1302628173667,0.775899
1302628233667,0.773067
1302628293667,0.769766
1302628353667,0.777468
1302628413667,0.776282
1302628473667,0.776431
1302628533667,0.771119
1302628593667,0.769258
1302628653667,0.778619
1302628713667,0.768251
1302628773667,0.766045
1302628833667,0.776972
1302628893667,0.776628
1302628953667,0.771798
1302629013667,0.775558
1302629073667,0.766638
1302629133667,0.771081
1302629193667,0.769539
1302629253667,0.772197
1302629313667,0.774659
1302629373667,0.768882
1302629433667,0.769978